Regional Weather Roundup
Issued by NWS Cleveland, OH

Home | Current Version | Previous Version | Graphics & Text | Print | Product List | Glossary On
Versions: 1 2 3 4 5 6 7 8 9 10 11 12 13 14 15 16 17 18 19 20 21 22 23 24 25 26 27 28 29 30 31 32 33 34 35 36 37 38 39 40 41 42 43 44 45 46 47 48 49 50
000
ASUS41 KCLE 301510
RWRCLE
OHIO REGIONAL WEATHER ROUNDUP
NATIONAL WEATHER SERVICE WILMINGTON, OH
1100 AM EDT THU JUL 30 2015

NOTE: "FAIR" INDICATES FEW OR NO CLOUDS BELOW 12,000 FEET WITH NO
SIGNIFICANT WEATHER AND/OR OBSTRUCTIONS TO VISIBILITY.

OHZ001>008-015>018-024>027-034-035-043-044-301600-
   NORTHWEST OHIO

CITY           SKY/WX    TMP DP  RH WIND       PRES   REMARKS
DEFIANCE       SUNNY     79  61  53 W6        30.03S
FINDLAY        SUNNY     78  63  59 W9        30.02S
TOLEDO EXPRESS SUNNY     77  62  59 W10       30.00F
TOLEDO EXEC    SUNNY     80  60  50 W12       30.01S
LIMA           SUNNY     77  60  55 W9        30.05S
$$

OHZ009>014-019>023-028>033-038-089-301600-
   NORTHEAST OHIO

CITY           SKY/WX    TMP DP  RH WIND       PRES   REMARKS
CLE-HOPKINS    MOSUNNY   79  63  57 W10       30.01R
CLE-LAKEFRONT  SUNNY     79  67  66 W13       29.97R
CUY CO. ARPT   SUNNY     79  64  61 SW12      29.99R
LORAIN-ELYRIA  SUNNY     77  63  61 NW7       30.01R
ASHTABULA      SUNNY     79  64  60 W12       29.97S
AKRON-CANTON   MOSUNNY   80  63  55 W8        30.01R
WOOSTER        SUNNY     77  63  61 W6        30.02S
MANSFIELD      SUNNY     76  62  62 W7        30.04R
YOUNGSTOWN     MOSUNNY   79  63  57 W12       29.99R
$$

OHZ042-051>053-060>062-070>072-077>081-301600-
  SOUTHWEST OHIO

CITY           SKY/WX    TMP DP  RH WIND       PRES   REMARKS
CINC-COVINGTON MOSUNNY   76  60  58 N8        30.09S
CINC-LUNKEN    SUNNY     80  62  54 N6        30.07F
HAMILTON       SUNNY     80  62  54 NW3       30.08S
DAYTON         MOSUNNY   77  63  61 N9        30.08S
WRIGHT-PAT AFB SUNNY     77  63  61 W6        30.06S
DAYTON GENERAL SUNNY     78  60  53 NW7       30.07S
WILMINGTON     SUNNY     77  60  55 N7        30.07S
$$

OHZ036-037-039>041-045>050-054>059-063>069-073>076-082>088-301600-
  CENTRAL AND SOUTHEAST OHIO

CITY           SKY/WX    TMP DP  RH WIND       PRES   REMARKS
COLUMBUS       MOSUNNY   79  60  52 NW8       30.03S
OSU AIRPORT    SUNNY     78  60  53 NW8       30.04S
BOLTON FIELD   SUNNY     77  64  65 NW5       30.05S
RICKENBACK AFB SUNNY     77  60  55 NW3       30.04R
NEWARK         SUNNY     79  62  56 NW5       30.03S
MARION         SUNNY     76  61  59 NW9       30.04S
LANCASTER      SUNNY     78  62  57 VRB7      30.04S
ZANESVILLE     SUNNY     79  61  53 W5        30.03R
NEW PHILLY     SUNNY     79  63  57 NW6       30.01S
$$


USA.gov is the U.S. government's official web portal to all federal, state and local government web resources and services.